Precipitable_Water
0.46 0.40 0.40 0.41 0.35 0.39 0.33 0.42 0.59 0.60 0.70 0.87 0.92 0.89 0.83 0.88 0.84 0.72 1.08 1.21 1.26 1.32 1.45 1.60 1.69 1.67 1.68 1.70 1.74 1.81 1.79 1.78 1.77 1.75 1.70 1.71 1.78 1.81 1.93 1.85 1.84 1.81 1.76 1.76 1.75 1.76 1.77 1.67 1.60
0.36 0.38 0.37 0.34 0.36 0.31 0.35 0.50 0.53 0.64 0.74 0.83 0.88 0.87 0.83 0.79 0.93 0.97 0.95 1.06 1.14 1.24 1.37 1.54 1.61 1.61 1.63 1.65 1.65 1.73 1.75 1.76 1.78 1.74 1.69 1.69 1.75 1.88 1.92 1.94 1.86 1.83 1.82 1.80 1.83 1.83 1.79 1.71 1.59
0.38 0.38 0.29 0.28 0.30 0.29 0.36 0.55 0.57 0.67 0.80 0.83 0.81 0.86 0.82 0.79 0.91 0.87 0.94 0.99 1.05 1.11 1.24 1.44 1.56 1.59 1.59 1.59 1.61 1.67 1.70 1.71 1.72 1.74 1.72 1.72 1.76 1.90 1.96 2.00 1.94 1.94 1.88 1.93 1.95 1.93 1.74 1.68 1.50
0.34 0.35 0.37 0.30 0.28 0.37 0.44 0.52 0.52 0.54 0.62 0.72 0.77 0.65 0.76 0.82 0.80 0.87 0.90 0.92 0.96 1.02 1.14 1.24 1.45 1.51 1.57 1.54 1.53 1.59 1.64 1.64 1.66 1.72 1.73 1.76 1.81 1.90 1.99 1.99 1.97 1.92 1.98 2.08 2.02 1.86 1.76 1.62 1.48
0.34 0.30 0.23 0.24 0.26 0.33 0.38 0.41 0.44 0.44 0.46 0.48 0.56 0.51 0.57 0.67 0.74 0.78 0.75 0.80 0.86 0.91 1.00 1.05 1.18 1.31 1.45 1.52 1.52 1.53 1.52 1.53 1.59 1.66 1.67 1.72 1.80 1.89 1.91 1.92 1.89 1.85 1.90 1.94 1.91 1.83 1.76 1.63 1.46
0.22 0.26 0.19 0.18 0.23 0.30 0.35 0.39 0.39 0.37 0.39 0.42 0.42 0.44 0.47 0.58 0.61 0.68 0.71 0.71 0.74 0.75 0.84 0.94 1.00 1.13 1.23 1.39 1.47 1.50 1.52 1.49 1.47 1.58 1.60 1.66 1.75 1.85 1.89 1.86 1.79 1.77 1.86 1.89 1.88 1.92 1.78 1.77 1.46
0.20 0.20 0.18 0.19 0.20 0.22 0.24 0.28 0.24 0.24 0.25 0.26 0.32 0.28 0.36 0.41 0.48 0.52 0.56 0.62 0.66 0.68 0.67 0.78 0.82 0.88 1.01 1.16 1.36 1.52 1.52 1.48 1.46 1.51 1.55 1.60 1.68 1.81 1.87 1.89 1.85 1.81 1.87 1.99 1.86 1.76 1.74 1.69 1.55
0.21 0.18 0.16 0.16 0.15 0.14 0.20 0.21 0.22 0.20 0.18 0.25 0.26 0.20 0.22 0.31 0.38 0.39 0.43 0.45 0.50 0.56 0.60 0.62 0.69 0.73 0.80 0.91 1.14 1.29 1.49 1.47 1.44 1.42 1.53 1.58 1.60 1.71 1.87 1.87 1.80 1.81 1.82 1.82 1.69 1.67 1.77 1.72 1.73
0.20 0.13 0.11 0.13 0.13 0.14 0.18 0.16 0.19 0.22 0.19 0.21 0.22 0.23 0.24 0.27 0.30 0.31 0.32 0.32 0.36 0.40 0.44 0.49 0.55 0.62 0.64 0.70 0.92 1.05 1.29 1.43 1.45 1.44 1.42 1.52 1.54 1.67 1.81 1.88 1.86 1.79 1.78 1.71 1.67 1.69 1.62 1.79 1.86
0.14 0.11 0.12 0.17 0.16 0.14 0.16 0.17 0.17 0.16 0.16 0.16 0.18 0.21 0.23 0.25 0.24 0.24 0.24 0.25 0.27 0.29 0.34 0.40 0.44 0.46 0.50 0.58 0.66 0.87 1.00 1.23 1.42 1.40 1.40 1.47 1.51 1.58 1.70 1.83 1.85 1.78 1.68 1.66 1.71 1.66 1.63 1.75 1.90
0.14 0.11 0.16 0.16 0.18 0.18 0.15 0.15 0.16 0.15 0.14 0.16 0.16 0.18 0.20 0.20 0.20 0.18 0.19 0.20 0.22 0.25 0.28 0.31 0.37 0.41 0.44 0.45 0.53 0.66 0.81 1.00 1.21 1.31 1.40 1.45 1.46 1.52 1.62 1.73 1.76 1.76 1.64 1.59 1.57 1.47 1.62 1.73 1.88
0.12 0.16 0.16 0.17 0.17 0.15 0.13 0.14 0.13 0.15 0.15 0.18 0.18 0.18 0.17 0.16 0.16 0.16 0.16 0.17 0.18 0.20 0.24 0.27 0.30 0.35 0.39 0.43 0.43 0.52 0.62 0.75 1.03 1.22 1.32 1.40 1.45 1.44 1.54 1.63 1.70 1.70 1.71 1.59 1.52 1.59 1.65 1.70 1.87
0.13 0.14 0.15 0.15 0.14 0.14 0.14 0.13 0.12 0.14 0.16 0.18 0.18 0.17 0.16 0.16 0.16 0.17 0.16 0.17 0.17 0.17 0.21 0.24 0.26 0.30 0.33 0.36 0.41 0.44 0.54 0.60 0.72 1.00 1.21 1.37 1.40 1.42 1.46 1.56 1.67 1.71 1.77 1.71 1.58 1.58 1.58 1.61 1.75
0.13 0.13 0.12 0.13 0.13 0.13 0.12 0.12 0.13 0.14 0.17 0.16 0.16 0.15 0.16 0.16 0.15 0.15 0.16 0.17 0.17 0.17 0.19 0.22 0.23 0.28 0.30 0.32 0.37 0.41 0.44 0.55 0.60 0.74 1.03 1.20 1.33 1.36 1.42 1.48 1.54 1.66 1.77 1.80 1.69 1.60 1.48 1.47 1.63
0.13 0.10 0.11 0.11 0.12 0.12 0.13 0.12 0.11 0.14 0.15 0.15 0.15 0.15 0.16 0.16 0.15 0.16 0.16 0.16 0.17 0.17 0.20 0.21 0.22 0.26 0.27 0.30 0.31 0.37 0.42 0.47 0.57 0.65 0.80 1.06 1.21 1.31 1.37 1.43 1.46 1.57 1.65 1.67 1.77 1.64 1.51 1.47 1.54
0.09 0.09 0.07 0.10 0.10 0.12 0.12 0.08 0.11 0.13 0.14 0.14 0.14 0.15 0.15 0.16 0.16 0.17 0.18 0.18 0.19 0.19 0.20 0.21 0.23 0.25 0.27 0.29 0.30 0.31 0.38 0.43 0.48 0.60 0.65 0.88 1.04 1.26 1.31 1.38 1.44 1.48 1.58 1.68 1.64 1.57 1.47 1.40 1.39
0.09 0.07 0.07 0.08 0.10 0.10 0.10 0.08 0.12 0.13 0.13 0.13 0.14 0.15 0.15 0.14 0.15 0.18 0.19 0.19 0.19 0.19 0.21 0.21 0.23 0.24 0.25 0.28 0.28 0.29 0.32 0.38 0.45 0.51 0.58 0.68 1.00 1.12 1.22 1.33 1.39 1.47 1.50 1.60 1.66 1.70 1.54 1.40 1.30
0.08 0.08 0.08 0.08 0.11 0.11 0.10 0.10 0.12 0.13 0.13 0.13 0.13 0.14 0.15 0.15 0.15 0.17 0.19 0.21 0.20 0.20 0.23 0.24 0.24 0.25 0.25 0.26 0.27 0.28 0.29 0.34 0.41 0.46 0.52 0.59 0.78 1.03 1.13 1.26 1.33 1.42 1.46 1.52 1.64 1.62 1.67 1.58 1.39
0.12 0.11 0.10 0.11 0.13 0.11 0.11 0.11 0.12 0.13 0.13 0.13 0.13 0.14 0.14 0.14 0.16 0.18 0.20 0.22 0.24 0.24 0.25 0.25 0.25 0.27 0.26 0.25 0.25 0.26 0.26 0.30 0.36 0.41 0.48 0.52 0.62 0.87 1.00 1.16 1.26 1.34 1.40 1.45 1.50 1.61 1.60 1.55 1.66
0.14 0.12 0.11 0.12 0.15 0.13 0.13 0.12 0.13 0.13 0.13 0.13 0.12 0.12 0.12 0.13 0.14 0.18 0.20 0.22 0.23 0.24 0.26 0.28 0.26 0.28 0.27 0.26 0.26 0.28 0.28 0.29 0.34 0.38 0.43 0.49 0.52 0.68 0.96 1.07 1.18 1.27 1.32 1.39 1.42 1.46 1.59 1.61 1.62
0.14 0.14 0.12 0.11 0.13 0.15 0.14 0.11 0.12 0.13 0.14 0.14 0.16 0.16 0.15 0.15 0.15 0.16 0.20 0.22 0.23 0.25 0.27 0.26 0.28 0.28 0.29 0.28 0.27 0.28 0.28 0.29 0.31 0.35 0.38 0.45 0.49 0.60 0.89 1.03 1.13 1.24 1.29 1.32 1.40 1.44 1.43 1.48 1.61
0.14 0.16 0.14 0.13 0.13 0.10 0.14 0.11 0.13 0.13 0.14 0.15 0.16 0.17 0.15 0.15 0.16 0.17 0.19 0.19 0.21 0.24 0.27 0.29 0.30 0.29 0.29 0.29 0.28 0.27 0.25 0.25 0.28 0.33 0.37 0.41 0.47 0.53 0.74 0.98 1.10 1.17 1.26 1.29 1.35 1.39 1.47 1.44 1.38
0.16 0.18 0.14 0.14 0.13 0.13 0.13 0.11 0.14 0.14 0.13 0.14 0.15 0.15 0.16 0.16 0.16 0.16 0.17 0.18 0.21 0.23 0.25 0.29 0.29 0.29 0.30 0.30 0.30 0.27 0.25 0.27 0.30 0.34 0.37 0.39 0.43 0.48 0.67 0.87 1.08 1.11 1.20 1.28 1.33 1.35 1.42 1.49 1.51
0.19 0.17 0.15 0.14 0.13 0.12 0.13 0.13 0.16 0.15 0.15 0.16 0.17 0.15 0.15 0.17 0.17 0.16 0.18 0.20 0.21 0.23 0.26 0.29 0.30 0.29 0.29 0.30 0.29 0.27 0.26 0.27 0.30 0.33 0.35 0.37 0.41 0.45 0.58 0.76 1.05 1.09 1.14 1.21 1.29 1.29 1.37 1.45 1.49
0.18 0.17 0.14 0.12 0.12 0.12 0.16 0.14 0.17 0.19 0.18 0.18 0.18 0.15 0.15 0.17 0.17 0.17 0.17 0.18 0.20 0.22 0.25 0.29 0.29 0.28 0.29 0.31 0.29 0.28 0.27 0.28 0.30 0.33 0.36 0.37 0.39 0.42 0.48 0.66 0.94 0.99 1.10 1.17 1.23 1.27 1.32 1.39 1.43
0.18 0.17 0.15 0.12 0.11 0.12 0.16 0.14 0.20 0.20 0.21 0.20 0.20 0.17 0.17 0.17 0.17 0.17 0.18 0.19 0.20 0.23 0.25 0.28 0.28 0.27 0.28 0.30 0.29 0.29 0.29 0.29 0.31 0.34 0.37 0.38 0.40 0.42 0.49 0.59 0.80 0.95 1.05 1.13 1.18 1.24 1.30 1.35 1.40
0.19 0.17 0.18 0.16 0.15 0.12 0.16 0.19 0.24 0.21 0.21 0.21 0.21 0.18 0.16 0.16 0.17 0.17 0.19 0.21 0.21 0.23 0.26 0.28 0.27 0.27 0.29 0.30 0.30 0.29 0.29 0.30 0.32 0.36 0.40 0.40 0.43 0.45 0.48 0.54 0.65 0.83 0.98 1.07 1.09 1.16 1.26 1.31 1.35
0.21 0.21 0.17 0.19 0.14 0.12 0.16 0.17 0.18 0.21 0.22 0.23 0.21 0.17 0.15 0.15 0.17 0.17 0.19 0.22 0.22 0.24 0.27 0.29 0.27 0.27 0.29 0.30 0.29 0.27 0.28 0.31 0.35 0.40 0.40 0.43 0.45 0.46 0.45 0.48 0.56 0.67 0.89 0.99 1.07 1.11 1.21 1.29 1.32
0.20 0.19 0.20 0.20 0.18 0.14 0.13 0.18 0.25 0.23 0.24 0.24 0.22 0.17 0.16 0.16 0.16 0.17 0.18 0.21 0.22 0.24 0.27 0.27 0.27 0.27 0.27 0.27 0.27 0.29 0.31 0.34 0.38 0.41 0.43 0.46 0.46 0.43 0.42 0.44 0.50 0.57 0.73 0.90 0.96 1.07 1.16 1.18 1.24
0.23 0.21 0.21 0.17 0.17 0.17 0.16 0.17 0.27 0.26 0.26 0.27 0.24 0.19 0.16 0.16 0.17 0.17 0.18 0.19 0.21 0.22 0.23 0.24 0.27 0.28 0.28 0.30 0.32 0.33 0.35 0.38 0.40 0.42 0.44 0.47 0.44 0.43 0.42 0.43 0.47 0.52 0.63 0.80 0.92 1.02 1.11 1.14 1.17
Wind_Speed
4 3 3 4 5 3 0 3 4 4 6 2 3 5 5 4 8 10 11 9 9 10 11 10 10 9 10 10 9 7 7 7 7 7 9 10 11 11 11 11 11 10 11 12 11 10 11 10 10
2 2 1 2 3 3 2 2 1 3 6 6 4 7 5 7 6 10 11 12 12 11 11 11 11 11 11 10 9 8 7 7 5 4 8 11 12 12 12 12 11 13 13 12 10 10 11 11 11
3 1 1 2 1 1 3 3 3 1 1 5 7 5 8 11 9 12 13 14 13 13 13 12 14 14 13 11 10 8 6 5 4 5 6 11 13 13 13 12 12 12 12 14 11 10 11 11 12
2 2 3 6 9 6 4 0 5 4 4 4 7 6 7 8 12 14 15 15 15 15 14 13 12 14 14 13 11 10 8 7 6 6 8 10 13 14 14 13 13 12 12 12 10 11 11 12 12
4 3 4 8 10 7 5 4 4 1 2 5 7 7 9 12 14 14 15 16 15 15 16 16 16 15 15 15 14 13 10 10 10 8 9 11 13 14 14 14 13 13 13 12 9 11 11 12 14
3 3 7 7 8 6 5 4 4 3 4 6 6 8 10 13 15 16 16 16 16 17 17 17 17 17 16 17 16 14 13 12 11 10 11 13 14 14 14 14 13 13 13 12 10 12 10 12 18
10 8 10 9 7 4 4 4 6 5 7 8 10 11 13 15 17 18 19 19 19 18 19 19 19 19 17 17 17 17 17 15 14 12 12 14 16 16 16 15 14 15 16 14 14 13 10 14 20
9 7 7 4 4 3 3 4 7 8 10 10 13 14 16 19 20 21 22 21 22 22 21 21 21 21 21 19 18 18 18 17 16 14 14 15 16 18 18 16 17 17 17 15 15 14 12 16 20
7 7 8 6 4 3 2 5 7 9 9 11 13 14 18 21 23 24 24 25 25 25 24 24 23 23 22 22 21 20 19 21 20 18 17 19 18 18 19 15 16 17 17 17 17 16 15 16 20
9 11 8 8 7 6 5 7 7 10 11 12 13 16 19 22 24 26 27 28 28 28 27 27 26 25 23 24 24 23 22 20 20 20 19 19 20 21 20 18 17 18 18 18 17 17 16 18 20
11 11 11 10 9 7 7 8 10 9 12 14 15 17 20 22 24 26 28 29 30 29 29 29 28 27 26 25 25 25 24 22 22 22 21 20 20 23 22 20 19 20 20 19 19 18 18 19 21
14 12 10 9 8 8 9 9 11 12 12 14 16 19 21 23 24 25 27 28 30 31 31 31 30 29 28 28 27 26 26 25 24 23 21 20 21 18 26 22 20 21 22 21 21 19 19 18 22
16 13 11 10 10 10 10 10 11 11 13 14 17 19 22 24 25 24 25 26 28 30 31 32 32 31 30 29 29 28 27 27 26 25 24 20 22 21 21 23 22 22 23 23 23 21 20 20 24
13 14 12 11 11 10 10 10 13 12 13 15 18 20 22 24 26 25 24 24 25 27 29 30 32 32 32 31 30 30 29 29 27 26 25 24 23 22 22 25 24 24 24 25 25 23 23 21 21
12 13 11 11 11 11 13 10 13 12 14 17 19 21 22 24 26 26 25 23 23 24 26 28 30 32 33 33 33 32 31 29 29 27 27 26 25 24 23 23 25 25 25 27 27 26 24 23 23
9 9 9 12 11 12 12 14 13 14 16 18 20 22 23 24 26 27 26 25 24 24 25 26 28 31 32 34 34 33 33 31 30 30 28 27 26 25 25 23 24 25 26 27 27 26 26 24 22
10 11 12 9 12 13 13 16 15 15 18 20 21 23 24 26 27 28 27 26 25 24 25 25 27 29 32 34 35 35 34 33 31 30 30 29 28 26 26 27 26 25 26 25 29 28 29 26 22
12 11 10 12 13 14 14 16 16 17 19 21 23 24 25 27 28 29 29 28 27 25 24 25 26 27 29 32 34 35 35 34 33 32 31 30 29 30 27 27 28 27 26 28 22 32 31 31 30
13 12 13 12 14 15 14 17 18 17 19 23 24 26 27 29 30 30 30 29 27 25 23 23 24 25 27 29 33 35 35 34 34 33 32 30 31 31 29 29 28 28 27 28 27 22 30 28 31
16 15 15 11 13 14 17 19 17 16 19 23 26 28 29 30 31 31 31 29 26 23 22 22 22 23 25 26 31 34 35 35 35 34 33 32 31 30 32 30 28 29 30 29 29 28 25 25 30
16 19 16 13 15 13 20 13 14 18 21 24 27 29 31 32 32 32 31 29 26 23 21 21 22 21 22 23 27 31 33 34 35 34 33 32 31 30 30 31 29 28 30 30 31 29 28 24 26
15 19 14 12 13 16 19 17 16 19 24 25 28 29 32 33 33 32 30 28 26 22 21 21 21 19 18 19 22 27 30 33 34 34 33 33 32 31 31 31 30 27 28 30 31 32 29 28 28
17 17 13 12 13 16 17 16 17 20 26 29 31 31 32 34 34 32 30 28 26 22 20 21 19 18 16 16 18 22 27 31 33 33 33 32 32 32 31 32 32 30 25 28 29 31 30 29 30
18 15 11 11 12 12 19 20 19 23 26 29 32 32 33 34 33 33 31 29 26 23 22 20 18 16 14 14 15 19 24 28 31 31 32 32 32 32 31 30 30 33 28 27 28 31 28 31 28
19 18 12 10 12 15 17 17 19 24 27 28 32 33 33 34 33 33 31 29 28 26 23 20 17 14 13 12 13 15 20 25 28 30 31 31 32 32 31 30 31 31 30 27 28 29 28 28 29
16 17 14 12 14 16 15 16 20 24 27 28 31 32 32 33 33 33 31 29 29 28 25 22 17 13 11 10 11 12 16 21 25 28 30 30 31 31 31 30 29 31 31 28 26 28 29 28 27
14 14 14 12 11 12 15 17 19 24 27 28 31 31 31 32 33 33 31 29 29 28 28 26 20 13 9 8 8 9 13 18 22 25 27 29 30 30 31 31 27 30 30 29 29 26 26 27 27
12 12 12 13 13 14 14 16 20 26 29 30 31 30 30 31 32 32 30 29 28 28 28 28 24 19 12 9 8 7 9 14 19 22 24 27 28 29 30 30 29 27 30 31 27 25 24 23 25
9 10 11 12 11 13 15 15 18 23 28 30 30 29 29 29 30 30 29 28 27 27 27 27 26 23 18 14 10 5 2 9 14 18 21 24 26 27 28 30 30 27 27 29 29 29 23 21 23
11 11 10 11 11 11 13 14 18 22 26 28 29 28 27 28 28 29 29 27 26 26 26 26 26 25 23 18 14 9 4 3 10 15 19 22 24 25 26 29 30 26 25 27 28 27 23 21 23
Wind_Direction
301 280 241 243 234 238 40 248 263 268 239 225 225 176 168 238 247 237 271 285 291 286 284 282 288 292 301 312 316 317 304 307 301 248 222 214 203 201 197 190 188 184 173 170 169 172 173 173 167
310 262 286 254 206 176 216 257 8 280 233 228 238 233 244 234 267 244 270 287 290 289 284 281 279 285 296 304 304 309 308 303 289 254 224 212 207 207 203 200 194 187 180 173 171 169 170 170 167
43 29 3 276 13 63 200 242 211 249 221 256 235 258 248 259 266 263 276 281 287 288 289 284 280 279 287 293 294 297 302 300 280 257 231 217 213 212 210 216 193 192 197 197 178 171 171 171 169
325 48 68 81 92 64 83 86 254 247 269 277 230 253 241 267 262 273 277 280 283 285 287 283 288 282 277 280 287 285 277 279 281 262 238 222 218 217 217 212 204 200 199 184 188 184 182 182 180
36 58 93 87 86 92 73 55 40 52 281 324 266 258 258 269 275 274 279 281 279 282 281 281 282 284 276 275 278 272 272 271 270 265 242 227 223 218 216 214 208 207 207 202 218 197 193 203 190
50 69 104 97 100 97 68 33 24 16 337 294 297 268 272 277 281 276 278 280 280 281 280 279 281 281 279 274 270 266 262 266 264 260 249 231 223 218 214 214 212 213 211 215 222 202 211 209 192
78 81 89 104 106 75 8 324 343 335 317 319 294 281 273 287 284 279 277 278 278 280 281 280 277 277 278 275 268 261 259 261 258 259 251 235 228 224 223 222 222 223 226 233 213 207 214 193 189
78 74 96 68 76 37 356 3 350 328 328 305 301 293 285 288 285 281 276 277 276 277 279 278 278 275 271 268 269 262 256 257 256 257 248 239 233 228 227 230 232 228 224 216 212 212 207 196 194
53 75 73 62 35 66 354 348 351 345 341 331 312 305 294 289 285 282 279 278 276 275 275 276 276 274 272 265 264 261 258 257 253 252 251 242 236 234 228 232 231 224 217 215 216 212 207 201 198
60 68 56 58 65 59 24 3 348 331 337 333 324 315 307 295 290 286 282 279 277 275 274 273 272 272 270 265 261 257 259 256 251 252 251 245 239 232 229 233 229 222 218 215 212 208 206 200 200
49 68 78 65 60 39 29 8 347 344 344 339 333 327 321 310 299 291 284 279 276 273 271 271 270 268 267 265 262 256 255 254 252 249 250 245 240 235 229 229 228 221 216 214 209 208 208 207 199
70 67 66 57 41 20 10 359 358 343 343 339 337 332 330 327 316 303 290 282 276 273 271 270 268 266 264 262 261 257 252 253 251 248 247 245 239 237 227 228 227 221 216 215 210 210 207 205 200
68 66 58 48 33 23 9 1 357 353 343 337 334 333 332 331 327 316 303 290 280 275 271 269 267 265 262 260 258 256 252 251 249 246 242 244 235 232 227 226 225 221 219 216 213 211 209 207 206
70 68 58 39 29 18 8 4 347 342 338 334 331 332 332 332 331 325 315 303 290 280 273 269 267 264 261 258 256 253 251 249 247 245 242 238 236 232 232 227 225 222 221 220 214 213 211 211 208
72 57 45 27 18 10 0 347 347 346 335 332 331 330 330 330 331 330 323 312 300 289 280 272 268 265 261 257 254 251 249 247 244 243 240 238 236 232 231 227 224 222 220 217 214 214 212 213 214
41 25 14 21 11 6 354 3 350 341 335 331 329 329 329 329 329 330 325 316 306 295 287 279 271 267 263 257 252 249 246 245 243 241 238 238 233 231 229 225 223 225 223 218 215 212 211 213 217
26 19 17 15 6 357 353 350 349 341 336 332 330 329 328 328 328 328 326 320 311 301 291 285 277 269 265 257 251 247 244 242 241 239 238 238 232 230 230 227 225 226 224 224 218 216 212 215 209
16 12 9 2 4 350 341 337 344 337 335 332 332 329 328 327 327 327 325 320 313 304 296 289 282 275 266 257 250 245 242 239 238 237 237 237 233 231 230 228 226 226 224 221 218 219 219 218 214
24 12 3 1 359 347 343 337 339 338 336 337 334 331 329 328 328 327 325 321 314 307 299 295 289 279 270 257 249 243 240 238 235 236 235 236 234 232 230 228 227 227 225 220 220 219 214 217 211
25 11 9 3 1 351 345 336 339 343 339 339 338 337 334 332 330 328 327 325 318 310 304 299 295 286 273 260 247 241 238 236 234 234 234 234 234 233 227 228 227 226 224 222 220 223 216 222 216
18 11 5 2 360 357 350 354 3 354 342 339 339 338 337 335 334 333 331 328 323 314 307 306 299 292 279 264 250 240 237 234 231 233 232 234 232 230 227 225 226 225 224 223 221 223 224 220 213
9 8 4 5 5 10 7 359 4 359 353 351 347 344 345 345 343 339 336 335 329 321 313 309 304 297 285 268 252 241 236 234 231 232 231 231 230 229 228 225 223 224 225 223 222 223 223 226 222
10 2 2 4 1 1 15 359 5 1 359 356 354 349 348 349 348 348 345 343 339 330 322 314 307 300 289 272 257 241 237 232 230 229 230 229 228 227 226 226 224 220 224 222 222 222 224 225 225
0 3 1 3 4 8 13 5 2 1 355 354 355 353 352 352 352 352 351 350 347 341 333 324 312 303 292 278 261 247 238 234 229 228 227 228 227 225 224 227 223 221 223 224 222 221 225 224 230
1 360 4 5 7 5 6 2 357 356 356 355 354 354 354 355 356 356 356 356 355 352 346 337 324 308 297 284 269 255 238 232 228 225 226 227 226 224 223 224 223 221 222 223 223 223 227 225 227
7 9 15 355 1 354 9 1 4 359 355 354 357 357 358 359 359 360 1 2 2 2 0 354 343 322 308 293 279 261 240 230 225 223 224 224 224 223 222 222 221 221 222 221 225 224 224 226 226
3 7 8 358 3 357 1 359 358 5 2 360 359 359 1 3 3 4 5 7 7 9 10 9 5 354 335 314 296 272 243 230 223 222 222 222 221 221 219 220 223 222 221 221 224 223 224 224 224
354 5 358 10 359 356 357 356 359 3 2 1 1 1 2 4 5 6 8 9 11 13 15 18 19 19 10 351 326 293 251 226 221 219 221 220 220 219 219 219 220 220 220 219 220 219 220 221 220
351 355 2 358 0 355 352 2 0 360 1 1 1 3 4 4 7 9 10 11 13 16 18 21 24 24 22 16 11 1 258 221 219 218 217 217 217 218 218 217 218 219 220 218 220 219 221 225 221
333 340 345 350 4 353 351 348 0 358 359 0 0 2 4 5 7 9 11 12 14 16 19 22 24 26 26 29 29 24 6 246 222 217 216 215 216 218 218 216 218 218 217 216 219 217 216 222 217